User: anonymous   Login
Location: Wildcat Hills Observatory
(41.6350°N, 103.6812°W)
Time: 16:21:48
(UTC-06:00)
Language:

Cosmos 1634 Rocket - Orbit

View from above orbital plane
View from above orbital plane
View from above satellite
View from above satellite

Ground track
Ground track

The orbit data is extracted from the following two-line orbital elements,

1 15598U 85022B   17085.76614922 +.00000044 +00000-0 +29357-4 0  9991
2 15598 082.9400 168.3728 0021480 343.3868 133.3023 13.76568537609122
Epoch (UTC): 26 March 2017 18:23:15
Eccentricity: 0.0021480
inclination: 82.9400°
perigee height: 960 km
apogee height: 992 km
right ascension of ascending node: 168.3728°
argument of perigee: 343.3868°
revolutions per day: 13.76568537
mean anomaly at epoch: 133.3023°
orbit number at epoch: 60912

The dashed part of the orbit path shows where the satellite is in the earth's shadow,  

DLR